Orbital Elements at Epoch 2457800.5 (2017-Feb-16.0) TDB
Reference: JPL K172/12 (heliocentric ecliptic J2000)
Element | Value | Uncertainty (1-sigma) | Units |
e | .5097929126747022 | 6.639e-07 | |
a | 6.068654576868308 | 1.1368e-05 | au |
q | 2.974897484109951 | 2.9707e-06 | au |
i | 9.635377864966653 | 1.5612e-05 | deg |
node | 13.25190332544677 | 0.00013869 | deg |
peri | 29.26997752861308 | 0.00040184 | deg |
M | 351.8727719107262 | 0.0001357 | deg |
tp | 2457923.775565136283 (2017-Jun-19.27556514) | 0.001846 | TDB |
period | 5460.558380000803 14.95 | 0.015343 4.201e-05 | d yr |
n | .06592732371811894 | 1.8524e-07 | deg/d |
Q | 9.162411669626664 | 1.7163e-05 | au |
|
Additional Model Parameters
Parameter | Value | Uncertainty (1-sigma) |
A1 [EST] | 2.38734542294088E-7 | 5.044E-8 |
A2 [EST] | 3.444369439891368E-7 | 5.354E-8 |
|
| | Orbit Determination Parameters
Additional Information
|